TimeCST,TemperatureF,Dew PointF,Humidity,Sea Level PressureIn,VisibilityMPH,Wind Direction,Wind SpeedMPH,Gust SpeedMPH,PrecipitationIn,Events,Conditions,WindDirDegrees,DateUTC
12:15 AM,33.8,30.2,87,29.96,10.0,Calm,Calm,-,N/A,,Clear,0,2013-02-05 06:15:00
12:35 AM,32.0,28.4,87,29.96,10.0,Calm,Calm,-,N/A,,Clear,0,2013-02-05 06:35:00
12:55 AM,33.8,28.4,81,29.96,10.0,Calm,Calm,-,N/A,,Clear,0,2013-02-05 06:55:00
1:15 AM,33.8,32.0,93,29.95,10.0,Calm,Calm,-,N/A,,Clear,0,2013-02-05 07:15:00
1:35 AM,33.8,32.0,93,29.95,10.0,Calm,Calm,-,N/A,,Clear,0,2013-02-05 07:35:00
1:55 AM,33.8,28.4,81,29.95,10.0,Calm,Calm,-,N/A,,Clear,0,2013-02-05 07:55:00
2:15 AM,32.0,28.4,87,29.95,10.0,Calm,Calm,-,N/A,,Clear,0,2013-02-05 08:15:00
2:35 AM,32.0,30.2,93,29.94,10.0,Calm,Calm,-,N/A,,Clear,0,2013-02-05 08:35:00
2:55 AM,32.0,30.2,93,29.94,10.0,Calm,Calm,-,N/A,,Clear,0,2013-02-05 08:55:00
3:15 AM,32.0,28.4,87,29.93,10.0,Calm,Calm,-,N/A,,Clear,0,2013-02-05 09:15:00
3:35 AM,30.2,28.4,93,29.92,10.0,Calm,Calm,-,N/A,,Clear,0,2013-02-05 09:35:00
3:55 AM,30.2,26.6,86,29.93,10.0,Calm,Calm,-,N/A,,Clear,0,2013-02-05 09:55:00
4:15 AM,30.2,28.4,93,29.93,10.0,Calm,Calm,-,N/A,,Clear,0,2013-02-05 10:15:00
4:35 AM,32.0,28.4,87,29.94,10.0,Calm,Calm,-,N/A,,Clear,0,2013-02-05 10:35:00
4:55 AM,32.0,30.2,93,29.95,10.0,Calm,Calm,-,N/A,,Clear,0,2013-02-05 10:55:00
5:15 AM,30.2,28.4,93,29.95,10.0,Calm,Calm,-,N/A,,Clear,0,2013-02-05 11:15:00
5:35 AM,28.4,26.6,93,29.95,10.0,Calm,Calm,-,N/A,,Clear,0,2013-02-05 11:35:00
5:55 AM,30.2,28.4,93,29.95,10.0,Calm,Calm,-,N/A,,Clear,0,2013-02-05 11:55:00
6:15 AM,28.4,26.6,93,29.96,10.0,Calm,Calm,-,N/A,,Clear,0,2013-02-05 12:15:00
6:35 AM,28.4,28.4,100,29.96,10.0,Calm,Calm,-,N/A,,Clear,0,2013-02-05 12:35:00
6:55 AM,28.4,26.6,93,29.98,10.0,Calm,Calm,-,N/A,,Clear,0,2013-02-05 12:55:00
7:15 AM,28.4,28.4,100,29.98,10.0,NNE,3.5,-,N/A,,Clear,30,2013-02-05 13:15:00
7:35 AM,30.2,28.4,93,29.98,10.0,Calm,Calm,-,N/A,,Clear,0,2013-02-05 13:35:00
7:55 AM,28.4,28.4,100,29.99,10.0,Calm,Calm,-,N/A,,Clear,0,2013-02-05 13:55:00
8:15 AM,28.4,28.4,100,30.00,10.0,Calm,Calm,-,N/A,,Clear,0,2013-02-05 14:15:00
8:35 AM,32.0,32.0,100,30.00,10.0,Calm,Calm,-,N/A,,Clear,0,2013-02-05 14:35:00
8:55 AM,35.6,35.6,100,30.01,10.0,Calm,Calm,-,N/A,,Clear,0,2013-02-05 14:55:00
9:15 AM,41.0,37.4,87,30.01,10.0,Calm,Calm,-,N/A,,Clear,0,2013-02-05 15:15:00
9:35 AM,42.8,37.4,81,30.02,10.0,Calm,Calm,-,N/A,,Clear,0,2013-02-05 15:35:00
9:55 AM,46.4,39.2,76,30.02,10.0,SSE,3.5,-,N/A,,Clear,160,2013-02-05 15:55:00
10:15 AM,46.4,41.0,81,30.03,10.0,SSW,4.6,-,N/A,,Clear,200,2013-02-05 16:15:00
10:35 AM,50.0,41.0,71,30.03,10.0,Calm,Calm,-,N/A,,Clear,0,2013-02-05 16:35:00
10:55 AM,53.6,42.8,67,30.04,10.0,Calm,Calm,-,N/A,,Clear,0,2013-02-05 16:55:00
11:15 AM,57.2,44.6,63,30.03,10.0,Calm,Calm,-,N/A,,Clear,0,2013-02-05 17:15:00
11:35 AM,60.8,44.6,55,30.03,10.0,Calm,Calm,-,N/A,,Clear,0,2013-02-05 17:35:00
11:55 AM,62.6,44.6,52,30.03,10.0,Calm,Calm,-,N/A,,Clear,0,2013-02-05 17:55:00
12:15 PM,64.4,44.6,49,30.03,10.0,NNW,3.5,-,N/A,,Clear,340,2013-02-05 18:15:00
12:35 PM,64.4,42.8,45,30.02,10.0,Calm,Calm,-,N/A,,Clear,0,2013-02-05 18:35:00
12:55 PM,64.4,42.8,45,30.01,10.0,NW,3.5,-,N/A,,Clear,320,2013-02-05 18:55:00
1:15 PM,64.4,42.8,45,30.01,10.0,NW,4.6,-,N/A,,Clear,320,2013-02-05 19:15:00
1:35 PM,66.2,42.8,43,30.00,10.0,NW,4.6,-,N/A,,Clear,320,2013-02-05 19:35:00
1:55 PM,66.2,42.8,43,30.00,10.0,Calm,Calm,-,N/A,,Clear,0,2013-02-05 19:55:00
2:15 PM,68.0,42.8,40,29.99,10.0,Calm,Calm,-,N/A,,Clear,0,2013-02-05 20:15:00
2:35 PM,68.0,42.8,40,30.00,10.0,NNW,3.5,-,N/A,,Clear,330,2013-02-05 20:35:00
2:55 PM,68.0,41.0,37,29.99,10.0,Calm,Calm,-,N/A,,Clear,0,2013-02-05 20:55:00
3:15 PM,68.0,41.0,37,29.99,10.0,Calm,Calm,-,N/A,,Clear,0,2013-02-05 21:15:00
3:35 PM,69.8,41.0,35,29.99,10.0,Calm,Calm,-,N/A,,Clear,0,2013-02-05 21:35:00
3:55 PM,68.0,41.0,37,29.99,10.0,Calm,Calm,-,N/A,,Clear,0,2013-02-05 21:55:00
4:15 PM,69.8,41.0,35,29.99,10.0,Calm,Calm,-,N/A,,Clear,0,2013-02-05 22:15:00
4:35 PM,69.8,41.0,35,29.99,10.0,Calm,Calm,-,N/A,,Clear,0,2013-02-05 22:35:00
4:55 PM,68.0,37.4,33,29.99,10.0,Calm,Calm,-,N/A,,Clear,0,2013-02-05 22:55:00
5:15 PM,64.4,37.4,37,29.98,10.0,NE,3.5,-,N/A,,Clear,50,2013-02-05 23:15:00
5:35 PM,64.4,37.4,37,29.99,10.0,Calm,Calm,-,N/A,,Clear,0,2013-02-05 23:35:00
5:55 PM,60.8,37.4,42,29.99,10.0,Calm,Calm,-,N/A,,Clear,0,2013-02-05 23:55:00
6:15 PM,57.2,35.6,44,29.98,10.0,Calm,Calm,-,N/A,,Clear,0,2013-02-06 00:15:00
6:35 PM,51.8,33.8,50,29.99,10.0,Calm,Calm,-,N/A,,Clear,0,2013-02-06 00:35:00
6:55 PM,50.0,32.0,50,30.00,10.0,Calm,Calm,-,N/A,,Clear,0,2013-02-06 00:55:00
7:15 PM,46.4,32.0,57,30.00,10.0,Calm,Calm,-,N/A,,Clear,0,2013-02-06 01:15:00
7:35 PM,44.6,32.0,61,30.00,10.0,Calm,Calm,-,N/A,,Clear,0,2013-02-06 01:35:00
7:55 PM,44.6,32.0,61,30.01,10.0,Calm,Calm,-,N/A,,Clear,0,2013-02-06 01:55:00
8:15 PM,42.8,32.0,66,30.01,10.0,Calm,Calm,-,N/A,,Clear,0,2013-02-06 02:15:00
8:35 PM,39.2,32.0,75,30.02,10.0,Calm,Calm,-,N/A,,Clear,0,2013-02-06 02:35:00
8:55 PM,39.2,32.0,75,30.02,10.0,Calm,Calm,-,N/A,,Clear,0,2013-02-06 02:55:00
9:15 PM,37.4,32.0,81,30.02,10.0,Calm,Calm,-,N/A,,Clear,0,2013-02-06 03:15:00
9:35 PM,35.6,32.0,87,30.03,10.0,Calm,Calm,-,N/A,,Clear,0,2013-02-06 03:35:00
9:55 PM,35.6,32.0,87,30.03,10.0,Calm,Calm,-,N/A,,Clear,0,2013-02-06 03:55:00
10:15 PM,37.4,32.0,81,30.03,10.0,Calm,Calm,-,N/A,,Clear,0,2013-02-06 04:15:00
10:35 PM,37.4,32.0,81,30.03,10.0,Calm,Calm,-,N/A,,Clear,0,2013-02-06 04:35:00
10:55 PM,37.4,32.0,81,30.03,10.0,Calm,Calm,-,N/A,,Clear,0,2013-02-06 04:55:00
11:15 PM,37.4,32.0,81,30.04,10.0,Calm,Calm,-,N/A,,Clear,0,2013-02-06 05:15:00
11:35 PM,37.4,32.0,81,30.04,10.0,Calm,Calm,-,N/A,,Clear,0,2013-02-06 05:35:00
11:55 PM,35.6,32.0,87,30.04,10.0,Calm,Calm,-,N/A,,Clear,0,2013-02-06 05:55:00